Vorticity
9 9 9 10 11 11 11 11 11 10 10 11 11 11 11 11 12 11 11 10 10 10 9 9 9 9 9 9 8 8 8 7 7 7 7 7 7 6 6 6 6 6 6 7 7 7 8 8 7 7 7 7 7 7 7 7 8 9 10 8 6 4 2 2 4 7 11 14 15 15 15 14 13 11 9 5 1 -3 -5 -2 -0 1 2 3 3 3
10 10 10 11 11 11 11 11 11 11 10 10 11 10 10 10 10 10 10 9 9 8 8 8 8 8 8 8 8 8 8 8 8 8 8 8 9 9 9 9 9 9 10 10 10 11 11 10 10 10 9 9 9 8 8 8 8 9 10 9 8 8 7 7 8 8 10 11 13 16 19 20 19 17 15 12 9 6 4 5 6 6 8 7 5 4
11 11 11 11 11 11 10 10 10 10 10 10 9 9 9 9 8 8 8 8 8 8 7 7 8 8 8 9 10 10 11 11 11 12 12 12 12 12 12 12 13 13 13 13 13 13 13 13 12 12 12 11 11 10 10 10 10 9 9 9 8 8 8 9 9 9 9 10 13 16 19 21 20 19 18 16 15 14 13 13 14 15 15 11 8 5
13 12 11 11 11 11 10 10 9 10 10 10 9 9 9 9 9 8 8 8 8 9 9 10 10 11 12 12 13 14 15 15 15 15 14 14 14 14 15 15 15 15 15 15 15 14 14 14 13 13 13 13 12 12 12 12 11 10 10 9 8 8 8 8 9 9 10 12 14 16 18 19 19 19 18 18 18 17 18 19 20 20 16 10 7 5
15 14 13 13 12 12 12 11 11 11 11 11 11 11 11 11 11 11 11 12 12 13 13 13 14 15 16 16 16 17 17 16 16 15 15 15 15 15 15 15 15 15 14 14 14 13 13 13 13 13 13 13 13 13 13 13 12 12 12 11 10 10 10 10 10 11 12 14 16 17 18 18 18 18 18 17 17 17 18 19 19 17 12 7 4 4
17 16 16 15 14 14 13 13 13 14 14 14 14 14 14 15 15 15 15 15 16 16 16 16 17 17 17 17 17 16 16 15 14 14 13 13 13 13 13 13 13 13 12 12 11 11 11 11 11 11 11 12 12 12 12 12 13 13 13 13 12 12 12 12 13 14 15 17 18 19 19 19 18 17 16 15 15 15 15 14 13 11 9 5 4 4
17 17 17 16 15 15 15 15 15 15 16 16 16 16 16 16 16 16 16 16 16 16 16 16 16 16 16 15 14 13 13 12 12 11 11 11 10 10 10 10 10 9 9 9 8 8 8 8 9 9 9 10 10 10 11 11 12 12 13 13 13 13 13 14 15 16 17 19 20 21 22 21 19 18 16 15 14 13 12 9 9 10 9 5 4 4
15 16 16 15 15 14 14 14 14 15 15 15 15 15 15 15 15 14 14 14 14 14 14 13 13 12 12 11 10 10 9 9 9 9 8 8 8 8 8 7 7 7 7 6 6 6 6 6 6 7 7 8 8 9 9 10 10 11 11 12 12 13 13 14 15 16 17 19 20 21 22 21 19 17 16 15 13 12 9 8 10 10 7 3 1 2
10 12 12 13 13 13 13 13 13 13 13 12 13 13 13 13 13 12 12 11 11 10 10 10 9 8 8 7 7 7 7 7 7 7 7 7 6 6 6 6 6 5 5 5 5 5 5 6 6 6 6 7 7 7 8 8 9 9 10 10 11 12 13 15 16 16 17 17 18 19 19 18 17 16 14 12 10 8 7 8 9 8 3 -1 -2 0
6 6 8 9 10 10 11 11 11 11 10 10 10 10 10 10 10 10 10 9 9 8 7 7 6 6 6 6 6 6 6 6 6 6 6 6 5 5 5 5 5 5 5 5 5 5 5 5 6 6 6 6 7 7 7 7 8 8 9 10 11 12 14 16 17 17 16 16 16 15 14 13 12 11 9 7 6 5 6 7 6 3 -1 -3 -2 1
3 4 4 5 6 7 8 9 9 9 9 8 8 7 7 7 7 7 7 7 7 6 6 5 5 5 5 5 5 5 5 5 5 5 6 5 5 5 5 5 5 5 5 5 5 5 6 6 6 6 6 6 7 7 7 7 8 9 10 11 13 14 16 18 19 19 18 17 15 13 11 9 7 6 5 4 4 5 7 7 6 3 1 1 3 7
2 2 3 3 4 5 6 7 7 8 8 7 7 7 7 6 6 5 5 5 5 5 4 4 5 5 5 4 4 5 5 5 5 5 5 5 6 5 5 5 5 5 5 5 5 6 6 6 6 6 6 6 7 7 7 8 9 10 11 13 14 16 18 19 19 19 19 18 16 14 11 8 6 5 5 6 7 9 10 11 11 10 10 11 13 16
3 3 3 3 3 3 4 5 6 7 8 8 8 8 7 6 6 6 6 5 5 4 3 4 4 5 5 5 5 5 5 5 5 5 5 5 5 5 5 5 6 6 6 6 6 6 6 6 6 6 6 6 7 7 8 8 10 11 12 14 15 16 17 17 18 18 18 17 16 13 10 8 7 8 11 13 15 16 17 18 19 19 20 20 21 22
4 4 4 4 4 3 3 4 4 5 6 7 8 7 7 6 6 6 6 6 6 5 4 4 5 5 5 6 6 6 6 6 6 6 6 6 6 6 5 6 6 6 6 6 6 6 6 6 6 6 6 6 7 7 8 9 10 12 13 14 15 15 15 15 15 16 16 16 14 12 8 5 6 8 13 16 18 20 21 22 22 22 22 22 22 22
6 6 6 5 5 4 4 4 4 5 5 6 6 7 7 7 7 6 6 6 6 5 6 6 6 6 6 6 6 6 6 6 6 6 6 6 6 6 6 6 6 7 7 7 7 7 6 6 6 6 6 7 7 8 8 10 11 12 13 13 13 13 13 13 14 15 15 15 14 11 7 4 2 3 6 9 12 14 16 18 18 19 19 19 19 20
7 7 7 7 6 6 5 5 5 5 5 6 6 6 6 6 6 6 6 6 5 5 6 6 6 7 8 7 7 6 6 6 6 6 6 6 6 6 6 6 7 7 8 7 7 7 6 6 6 6 6 7 7 8 9 10 12 13 13 13 12 11 11 12 13 14 15 15 15 13 10 7 4 2 1 2 4 6 9 12 14 15 16 17 18 19
8 9 8 8 8 7 7 7 7 6 6 6 6 6 6 6 6 6 6 6 6 6 6 6 6 6 6 7 8 7 6 6 6 6 6 6 7 7 6 7 7 7 8 8 8 7 7 6 6 6 6 7 7 8 9 11 12 13 14 13 12 10 9 9 10 11 13 14 14 14 13 11 9 7 5 5 5 6 8 11 14 16 17 18 18 20
9 9 9 9 9 8 8 8 8 7 7 7 7 6 6 6 6 6 7 7 7 7 6 7 7 7 6 6 6 6 6 6 6 6 7 7 7 7 7 7 7 7 7 8 8 8 7 7 6 6 6 7 7 8 9 11 13 15 16 15 12 10 8 7 7 8 9 10 11 12 12 12 12 11 10 9 9 10 11 14 17 18 19 19 19 20
9 10 10 10 9 9 9 8 8 8 8 8 7 7 6 6 7 7 7 7 7 7 6 6 7 8 8 8 6 5 6 6 6 6 7 7 7 7 7 8 8 8 8 8 8 7 7 7 6 6 6 7 7 8 9 11 13 16 18 16 13 10 7 6 6 6 6 7 8 9 10 11 11 11 12 12 13 14 16 18 20 20 20 19 18 17
9 10 10 10 10 9 9 9 9 8 8 8 8 8 8 7 7 7 7 7 7 7 7 7 7 8 8 8 7 6 6 6 7 8 8 7 7 7 7 8 8 8 8 8 8 7 7 7 6 6 6 7 7 7 8 10 13 15 17 15 12 8 6 5 5 5 6 7 8 9 10 11 12 13 13 15 16 18 19 21 21 21 20 19 17 15
10 10 10 10 10 10 9 9 9 8 8 8 8 8 8 8 8 8 8 7 7 7 7 8 8 8 7 8 7 7 6 7 8 8 8 8 8 8 8 8 8 8 8 8 8 7 7 7 6 6 6 7 7 7 8 10 12 13 13 11 8 5 3 3 4 5 6 7 9 10 12 13 14 15 17 18 19 20 21 21 21 20 20 19 19 17
10 10 10 10 10 10 10 9 9 9 9 8 8 9 9 9 8 8 8 8 8 8 8 8 8 8 8 8 8 8 8 9 9 8 8 8 9 9 8 8 8 8 8 8 8 7 7 7 6 6 7 7 7 8 8 9 10 10 10 7 5 4 3 4 4 6 8 9 11 12 14 15 16 18 19 20 21 21 21 20 20 19 18 19 20 19
10 10 10 11 11 11 10 10 10 10 9 9 9 9 9 9 9 8 8 8 8 8 8 8 8 8 9 9 9 9 9 9 9 9 9 9 9 8 8 8 8 8 8 8 7 7 7 7 7 7 7 7 8 8 9 9 9 9 8 6 5 4 4 5 7 8 10 11 13 14 16 17 17 18 19 20 20 20 19 18 17 16 15 16 17 18
11 11 11 11 11 11 11 11 11 10 10 10 9 9 9 9 8 8 8 8 8 8 9 9 9 9 9 9 9 9 10 9 9 9 10 10 9 8 8 8 8 8 8 7 7 7 7 7 7 7 7 7 8 8 9 9 9 8 7 6 5 6 6 8 9 10 12 13 14 15 16 17 17 18 18 18 17 17 17 16 15 14 13 13 14 15
10 10 11 11 11 11 11 11 11 11 11 10 10 10 10 9 9 9 9 9 9 9 9 9 9 9 8 8 9 10 10 9 9 9 9 9 9 9 8 8 8 8 7 7 7 7 7 7 7 7 7 7 8 8 9 9 9 8 7 7 7 7 8 9 10 12 12 13 14 15 15 16 16 16 15 15 15 14 14 13 13 12 12 12 13 14
10 10 10 10 11 11 12 12 11 11 11 11 11 10 10 10 10 10 9 9 9 9 9 9 9 9 8 9 9 10 10 10 10 10 9 9 9 9 9 8 8 8 7 7 7 8 8 8 8 7 7 7 8 8 9 10 10 9 8 8 8 8 10 10 11 12 12 13 13 14 14 14 14 13 13 13 13 12 12 12 11 11 11 12 13 13
9 9 10 10 10 11 11 11 11 11 11 11 11 11 11 10 10 10 10 9 9 9 9 9 9 9 9 9 10 10 9 10 10 10 10 9 9 9 9 8 8 8 7 7 7 7 7 8 8 7 7 7 8 8 10 10 10 10 9 9 9 10 10 11 11 11 12 12 12 13 13 12 12 12 11 11 11 11 10 10 10 10 11 12 13 13
8 8 9 9 10 10 10 11 11 11 11 11 11 11 11 11 10 10 10 10 10 10 9 9 9 9 9 9 9 10 10 10 10 10 10 10 10 10 9 8 8 8 7 7 7 7 8 8 8 7 7 7 8 9 10 10 10 10 10 10 10 10 10 11 11 11 11 11 12 12 12 11 11 10 10 10 10 10 10 10 10 10 11 12 12 12
8 8 8 9 9 9 10 10 10 11 11 11 11 11 11 11 11 11 10 10 10 10 10 9 9 9 9 9 9 10 10 11 11 10 10 11 11 10 9 8 8 8 7 7 7 7 9 9 8 8 8 8 8 9 10 11 11 11 10 10 10 10 10 11 11 10 10 11 11 11 11 10 10 10 10 10 10 10 10 10 10 11 12 13 13 13
10 9 9 9 9 9 9 9 9 10 10 11 11 11 11 11 11 11 11 11 10 10 10 9 9 9 9 9 9 10 11 12 11 10 10 11 11 10 9 9 8 8 7 7 7 7 8 9 9 9 8 8 9 10 11 11 11 11 11 11 10 11 11 10 10 10 10 11 11 11 11 10 10 10 10 10 10 10 10 10 10 11 13 14 15 15
11 10 10 10 10 10 9 9 9 9 10 10 10 10 11 11 11 11 11 11 11 11 10 10 9 9 9 9 9 10 10 11 11 11 10 11 10 10 9 8 8 8 7 7 7 7 8 9 9 9 9 9 10 11 12 12 12 12 11 11 11 10 10 10 10 10 11 11 11 11 10 10 10 10 10 10 10 10 10 10 11 12 14 16 17 18
13 12 12 11 11 11 10 10 10 9 9 9 10 10 10 11 11 11 11 11 11 11 11 10 10 9 9 9 9 9 10 11 11 11 11 11 10 10 9 8 8 8 8 8 7 7 7 8 8 9 10 10 10 11 12 13 13 12 11 11 10 10 10 10 11 11 11 11 11 11 10 10 10 10 10 10 10 10 10 10 11 13 15 17 19 19
14 14 14 13 13 12 11 11 10 10 10 10 10 10 10 10 11 11 11 11 11 10 10 10 10 10 9 9 8 9 10 10 10 10 10 11 11 10 9 9 8 8 8 8 8 7 7 8 8 9 10 10 11 11 12 13 13 12 11 10 10 9 10 10 11 11 11 11 11 11 10 10 10 10 10 10 10 10 10 11 12 13 16 18 18 16
16 15 15 14 14 13 12 12 11 11 10 10 10 10 10 10 10 10 11 11 10 10 10 10 10 10 10 9 9 9 10 10 10 10 13 15 14 13 11 10 9 8 8 8 8 8 8 8 8 9 10 10 11 12 12 13 13 12 10 9 8 9 10 10 11 11 11 11 11 10 10 10 10 10 10 10 10 10 10 11 13 15 17 18 16 13
17 16 16 15 14 13 13 13 12 12 11 10 10 10 10 10 10 10 10 10 10 10 9 9 9 10 10 10 10 10 10 10 9 9 11 14 15 15 13 12 11 9 8 8 8 8 8 8 8 8 9 10 11 13 13 13 12 11 9 7 7 8 10 10 11 11 11 10 10 10 10 10 10 10 10 10 10 10 11 12 14 16 19 18 14 9
18 18 17 16 15 14 14 13 13 12 11 11 11 10 10 10 10 10 10 10 10 10 9 9 9 9 9 9 9 9 10 10 10 9 8 8 10 13 13 13 12 10 9 8 8 8 8 8 8 9 9 10 12 13 14 14 12 10 7 6 6 7 10 11 11 11 10 10 10 10 10 10 10 10 10 10 10 11 12 13 16 18 19 17 11 6
19 18 18 18 16 15 14 13 13 12 12 11 11 10 10 10 10 10 9 9 9 9 9 9 9 9 9 8 8 8 9 9 10 10 9 8 9 10 11 11 10 9 8 8 8 8 8 8 9 9 10 11 13 14 14 13 11 8 4 4 5 7 10 11 11 11 11 10 10 10 10 10 9 10 10 10 11 12 13 15 17 18 18 13 7 3
20 19 19 18 18 17 15 14 13 12 12 12 11 11 10 10 10 10 9 9 9 9 9 9 9 10 10 9 9 8 9 9 10 10 10 9 9 9 9 9 9 8 8 8 8 8 8 8 9 10 11 13 15 15 13 11 8 5 3 4 5 7 10 11 11 11 11 11 10 10 10 10 10 10 10 11 12 13 15 16 18 17 15 10 4 2
20 19 19 19 19 18 17 15 13 12 12 12 12 11 11 11 10 10 9 9 8 8 8 8 9 9 10 10 9 9 9 9 10 10 11 10 10 10 10 9 9 9 9 8 8 8 8 9 9 10 12 14 16 16 13 9 6 3 2 3 5 7 10 11 12 12 11 11 10 10 10 10 10 10 11 12 13 14 16 17 17 15 12 6 3 2
20 20 19 19 19 19 18 16 14 13 12 12 12 12 11 11 11 10 9 8 8 8 8 8 8 8 9 9 9 9 9 9 10 10 12 12 12 12 12 11 11 10 10 9 9 8 8 9 10 12 14 15 14 12 10 6 3 2 2 3 5 8 10 11 12 12 12 11 11 10 10 10 10 11 12 13 14 15 16 16 15 13 9 6 5 6
21 20 20 19 19 19 19 17 15 13 12 12 12 13 12 12 12 11 10 10 9 8 8 8 8 8 8 9 9 9 9 10 10 11 12 12 12 12 12 12 11 10 10 9 9 9 9 10 11 13 16 16 13 10 6 3 1 1 2 3 5 8 10 12 12 13 12 12 11 10 10 10 11 12 13 15 16 16 16 15 13 11 8 7 7 8
22 21 20 20 19 19 19 18 16 14 13 12 12 12 13 13 13 13 12 11 10 10 9 8 9 9 10 9 9 9 9 9 10 11 12 13 13 13 11 10 9 8 8 8 9 9 10 10 12 14 15 12 9 6 2 -0 -1 0 2 3 5 7 10 12 13 13 13 12 11 10 10 11 12 13 15 16 16 16 15 14 12 10 9 9 10 11
22 22 21 20 20 20 19 19 17 16 14 12 11 11 12 13 13 13 13 12 12 11 10 8 8 9 10 10 10 10 9 9 10 10 12 13 14 13 12 10 8 7 7 7 8 10 11 12 14 14 13 9 6 2 -1 -2 -1 0 1 2 4 7 10 13 14 14 13 12 11 11 11 12 13 15 16 16 15 14 13 12 11 10 10 11 12 13
23 23 22 21 21 20 19 18 18 17 16 13 12 12 12 12 13 14 13 13 12 11 10 9 9 9 9 10 10 10 10 10 10 10 12 13 13 14 13 12 10 9 7 7 8 9 11 15 16 15 10 7 3 0 -2 -0 1 2 2 2 4 7 10 13 14 14 13 12 11 11 12 13 15 16 16 15 14 13 12 11 10 10 11 12 13 14
24 23 23 23 22 21 20 19 19 18 17 15 13 12 11 12 13 13 14 14 13 12 11 10 10 10 9 10 10 10 11 10 10 10 12 13 13 14 13 13 11 10 8 8 8 9 12 15 15 13 8 4 1 -1 -1 3 5 5 3 3 5 8 11 13 15 14 13 12 12 12 13 15 16 16 15 14 12 11 11 11 11 12 13 13 13 13
24 23 23 24 23 23 22 21 20 20 19 17 15 13 12 12 12 13 14 14 14 13 12 11 10 10 11 11 11 10 10 10 10 11 12 13 14 14 13 13 11 10 8 8 9 11 14 16 14 11 6 0 -3 -3 1 6 7 7 4 4 5 8 12 15 16 15 14 13 13 14 16 17 17 16 14 12 11 11 11 12 13 13 13 13 12 11
24 23 24 24 24 24 24 23 22 21 20 19 17 15 13 12 13 13 14 14 14 14 14 12 10 10 11 12 11 10 10 11 11 12 13 13 14 14 14 13 12 11 9 8 10 12 16 18 17 12 6 -1 -3 -1 5 9 9 8 4 3 4 8 12 15 16 16 14 14 14 16 18 18 17 14 12 11 11 11 13 13 14 13 13 12 10 9
23 23 24 23 24 24 26 25 24 23 22 21 20 17 14 13 13 14 15 15 15 14 14 13 12 12 11 11 10 10 10 11 12 13 14 14 14 14 14 14 13 12 10 10 10 12 16 18 17 12 4 -2 -1 4 10 11 10 8 4 3 5 8 13 16 17 17 15 15 16 18 19 17 15 12 10 10 11 13 14 14 14 12 10 9 8 8
22 22 22 22 22 24 26 26 26 25 24 23 22 21 19 16 14 14 16 16 16 15 14 14 14 14 13 12 10 10 9 10 12 13 14 15 15 15 15 15 14 13 11 10 11 12 15 17 14 8 -1 -5 -2 5 12 11 9 6 4 3 5 9 14 17 18 18 17 18 19 19 19 16 13 11 10 10 12 14 15 14 13 10 8 7 7 7
21 21 20 19 20 22 25 27 27 27 27 26 24 22 20 17 15 14 15 17 16 15 15 15 15 15 14 13 12 10 10 10 11 13 14 15 16 16 16 16 15 13 12 11 11 13 14 14 10 3 -6 -7 -2 6 12 11 9 6 4 4 6 10 16 19 20 19 19 19 19 19 16 13 11 10 10 12 13 15 15 13 11 9 7 6 6 7
22 22 25 23 22 22 23 25 27 28 28 28 26 25 23 20 18 17 17 16 16 15 15 16 16 16 15 14 13 11 10 11 12 13 15 16 17 17 18 17 16 14 12 11 12 13 14 13 6 -3 -8 -4 3 9 13 10 7 4 3 5 8 12 18 20 21 20 19 19 18 16 13 11 9 9 10 12 13 14 13 11 10 8 6 6 6 8
Height
5661 5660 5660 5661 5661 5661 5660 5660 5660 5660 5659 5659 5660 5660 5660 5659 5659 5659 5659 5659 5658 5658 5658 5658 5658 5658 5658 5658 5658 5658 5658 5657 5657 5657 5657 5656 5656 5656 5655 5655 5655 5655 5654 5654 5654 5653 5653 5653 5653 5652 5652 5652 5652 5651 5651 5651 5651 5651 5651 5651 5651 5650 5649 5649 5648 5648 5648 5648 5647 5647 5648 5648 5647 5647 5646 5646 5646 5647 5647 5646 5646 5646 5646 5646 5646 5645
5656 5655 5655 5655 5656 5656 5655 5655 5655 5656 5655 5655 5655 5655 5655 5655 5655 5654 5654 5654 5654 5654 5654 5654 5654 5654 5654 5654 5654 5654 5654 5653 5653 5653 5653 5653 5652 5652 5652 5652 5651 5651 5651 5650 5650 5650 5650 5650 5649 5649 5649 5649 5648 5648 5648 5648 5647 5647 5647 5647 5647 5646 5645 5645 5645 5644 5644 5644 5644 5644 5644 5644 5644 5643 5643 5643 5643 5643 5643 5643 5643 5643 5642 5642 5642 5642
5652 5651 5650 5650 5651 5651 5650 5650 5650 5651 5650 5650 5650 5650 5650 5650 5650 5650 5650 5650 5650 5650 5650 5650 5650 5650 5650 5650 5650 5650 5650 5649 5649 5649 5649 5649 5649 5649 5648 5648 5648 5648 5647 5647 5647 5646 5646 5646 5646 5645 5645 5645 5645 5645 5644 5644 5644 5644 5643 5643 5643 5642 5642 5641 5641 5641 5640 5640 5640 5640 5640 5640 5640 5640 5640 5639 5639 5640 5640 5640 5640 5640 5640 5640 5639 5639
5648 5647 5646 5646 5646 5646 5645 5645 5645 5645 5646 5645 5645 5645 5645 5645 5645 5645 5645 5645 5645 5645 5645 5645 5645 5645 5645 5645 5645 5645 5645 5645 5645 5645 5645 5645 5645 5645 5645 5645 5645 5644 5644 5644 5643 5643 5643 5643 5642 5642 5642 5642 5641 5641 5641 5640 5640 5640 5640 5640 5639 5639 5638 5638 5637 5637 5637 5637 5637 5637 5637 5636 5636 5636 5636 5636 5636 5636 5636 5636 5636 5637 5637 5637 5636 5636
5643 5642 5641 5641 5641 5641 5640 5641 5641 5641 5641 5641 5641 5641 5641 5641 5641 5641 5641 5641 5641 5641 5641 5641 5641 5641 5641 5641 5641 5641 5641 5641 5641 5642 5642 5642 5641 5641 5641 5641 5641 5641 5640 5640 5640 5640 5640 5639 5639 5639 5639 5638 5638 5638 5637 5637 5636 5636 5636 5636 5635 5635 5635 5634 5634 5634 5634 5634 5634 5634 5633 5633 5633 5633 5633 5633 5633 5632 5632 5633 5633 5634 5634 5634 5634 5634
5638 5638 5637 5637 5636 5636 5636 5636 5636 5636 5636 5636 5636 5636 5636 5636 5636 5636 5636 5636 5637 5637 5637 5637 5637 5637 5637 5637 5637 5637 5638 5638 5638 5638 5638 5638 5638 5638 5638 5638 5638 5637 5637 5637 5636 5636 5636 5636 5636 5636 5635 5635 5635 5634 5634 5634 5633 5633 5633 5632 5632 5631 5631 5631 5630 5630 5630 5630 5630 5630 5630 5629 5629 5629 5629 5630 5629 5629 5630 5630 5630 5630 5631 5631 5631 5630
5633 5633 5632 5632 5632 5631 5632 5631 5631 5631 5632 5631 5632 5632 5632 5632 5632 5632 5632 5632 5632 5633 5633 5633 5633 5633 5633 5633 5633 5634 5634 5634 5634 5634 5635 5635 5634 5634 5634 5634 5634 5634 5634 5633 5633 5633 5633 5633 5633 5632 5632 5632 5631 5631 5630 5630 5630 5629 5629 5629 5628 5628 5628 5627 5627 5627 5626 5626 5627 5627 5627 5626 5626 5626 5626 5626 5626 5626 5627 5627 5627 5627 5628 5628 5628 5628
5628 5628 5628 5628 5627 5627 5627 5627 5627 5627 5627 5627 5627 5627 5628 5628 5628 5628 5628 5628 5628 5628 5629 5629 5629 5629 5629 5630 5630 5630 5630 5630 5630 5630 5630 5631 5631 5630 5630 5630 5630 5630 5630 5630 5630 5630 5630 5629 5629 5629 5629 5629 5628 5628 5627 5627 5626 5626 5625 5625 5625 5625 5624 5624 5623 5623 5623 5623 5624 5624 5624 5623 5623 5623 5623 5623 5624 5624 5624 5624 5624 5625 5625 5625 5624 5624
5623 5623 5623 5623 5623 5622 5622 5622 5622 5622 5622 5622 5622 5623 5623 5623 5624 5624 5624 5624 5624 5624 5625 5625 5625 5625 5625 5625 5626 5626 5626 5626 5626 5627 5627 5627 5627 5627 5627 5627 5627 5627 5627 5627 5626 5626 5626 5626 5626 5626 5625 5625 5625 5624 5624 5623 5623 5622 5622 5622 5621 5621 5621 5620 5620 5620 5620 5620 5620 5620 5620 5620 5620 5620 5620 5620 5620 5621 5621 5622 5622 5623 5622 5622 5621 5621
5618 5618 5618 5619 5619 5619 5618 5617 5617 5617 5618 5617 5617 5618 5619 5619 5619 5619 5620 5620 5620 5620 5620 5620 5621 5621 5621 5622 5622 5622 5622 5623 5623 5623 5623 5623 5623 5623 5623 5623 5623 5623 5623 5623 5623 5623 5623 5623 5623 5622 5622 5622 5621 5621 5620 5620 5619 5619 5619 5618 5618 5618 5617 5617 5617 5617 5617 5617 5617 5617 5617 5617 5617 5617 5617 5617 5618 5618 5619 5620 5620 5620 5620 5619 5618 5618
5612 5613 5613 5614 5614 5614 5614 5613 5613 5613 5613 5612 5613 5613 5614 5614 5614 5615 5615 5615 5616 5616 5616 5616 5617 5617 5617 5617 5618 5618 5619 5619 5619 5619 5619 5619 5619 5619 5619 5620 5620 5620 5620 5620 5620 5620 5620 5620 5619 5619 5619 5618 5618 5617 5617 5616 5616 5615 5615 5615 5615 5615 5614 5614 5614 5613 5614 5614 5614 5614 5614 5614 5614 5614 5615 5615 5615 5616 5616 5617 5617 5616 5616 5616 5615 5615
5607 5607 5608 5608 5609 5609 5609 5609 5608 5608 5608 5608 5608 5608 5609 5609 5610 5610 5610 5610 5611 5612 5612 5612 5612 5613 5613 5613 5614 5614 5615 5615 5615 5615 5615 5615 5615 5615 5615 5615 5615 5616 5616 5616 5616 5616 5616 5616 5616 5615 5615 5615 5615 5614 5614 5613 5613 5612 5612 5612 5612 5611 5611 5611 5610 5610 5610 5610 5610 5610 5610 5611 5611 5611 5611 5612 5612 5613 5613 5613 5613 5613 5613 5613 5613 5613
5601 5602 5602 5603 5603 5604 5604 5604 5604 5603 5603 5603 5603 5603 5603 5604 5605 5605 5605 5605 5606 5607 5607 5608 5608 5609 5609 5609 5609 5610 5610 5610 5610 5611 5611 5611 5611 5612 5612 5612 5612 5612 5612 5612 5613 5613 5613 5613 5612 5612 5612 5612 5611 5611 5610 5610 5610 5609 5609 5609 5609 5608 5608 5607 5607 5607 5607 5607 5607 5607 5607 5608 5608 5608 5609 5609 5609 5610 5610 5610 5610 5610 5610 5610 5610 5610
5595 5596 5596 5597 5597 5598 5599 5599 5598 5598 5598 5598 5598 5598 5598 5599 5599 5600 5600 5601 5601 5602 5603 5603 5603 5604 5605 5605 5605 5605 5606 5606 5606 5607 5607 5607 5607 5608 5608 5608 5608 5608 5609 5609 5609 5609 5609 5609 5609 5609 5609 5608 5608 5607 5607 5607 5606 5606 5606 5606 5606 5605 5605 5605 5604 5604 5604 5604 5604 5605 5605 5605 5605 5606 5606 5606 5606 5606 5606 5606 5606 5606 5607 5607 5607 5607
5590 5590 5590 5591 5592 5593 5593 5593 5593 5593 5593 5593 5593 5593 5593 5594 5594 5595 5595 5595 5596 5597 5598 5598 5599 5600 5600 5600 5601 5601 5601 5602 5602 5602 5603 5603 5604 5604 5604 5604 5604 5604 5605 5605 5605 5605 5606 5606 5605 5605 5605 5605 5605 5604 5604 5604 5604 5603 5603 5603 5603 5602 5602 5602 5601 5601 5601 5601 5601 5602 5602 5602 5603 5603 5603 5603 5603 5603 5603 5604 5604 5604 5604 5604 5605 5605
5584 5585 5585 5585 5586 5587 5588 5588 5588 5587 5587 5588 5588 5588 5588 5588 5589 5590 5590 5590 5591 5592 5593 5593 5594 5595 5595 5596 5596 5597 5597 5597 5598 5598 5599 5599 5599 5600 5600 5600 5600 5600 5601 5601 5602 5602 5602 5602 5602 5602 5602 5601 5601 5601 5601 5601 5600 5600 5600 5600 5600 5600 5599 5599 5599 5599 5599 5599 5599 5599 5599 5600 5600 5600 5600 5600 5600 5600 5601 5601 5601 5601 5601 5602 5602 5602
5578 5578 5579 5580 5580 5581 5582 5582 5582 5582 5582 5582 5582 5583 5583 5583 5584 5585 5585 5586 5586 5587 5588 5588 5589 5590 5590 5591 5591 5592 5593 5593 5593 5594 5595 5595 5595 5596 5597 5596 5596 5596 5597 5598 5598 5598 5599 5599 5599 5598 5598 5598 5598 5598 5598 5598 5598 5598 5598 5597 5597 5597 5596 5596 5596 5596 5596 5596 5596 5596 5596 5597 5597 5597 5597 5597 5598 5598 5598 5598 5598 5599 5599 5599 5600 5600
5571 5572 5573 5574 5575 5575 5576 5576 5576 5576 5576 5576 5576 5577 5577 5578 5579 5580 5580 5581 5581 5582 5583 5584 5585 5585 5586 5586 5586 5587 5588 5588 5588 5589 5590 5591 5591 5592 5593 5593 5592 5593 5593 5594 5594 5595 5595 5595 5595 5595 5595 5595 5595 5595 5595 5595 5595 5595 5595 5595 5595 5594 5594 5594 5593 5593 5593 5593 5593 5593 5593 5594 5594 5594 5594 5594 5595 5595 5595 5595 5595 5595 5596 5596 5597 5597
5565 5566 5567 5568 5568 5569 5570 5570 5570 5570 5570 5570 5570 5571 5571 5572 5573 5574 5575 5576 5576 5577 5578 5579 5580 5580 5581 5581 5581 5581 5583 5583 5584 5585 5586 5587 5587 5588 5588 5589 5589 5589 5589 5590 5590 5591 5591 5591 5591 5591 5591 5591 5591 5591 5592 5592 5592 5592 5592 5592 5591 5591 5591 5590 5590 5590 5590 5590 5590 5590 5590 5590 5590 5591 5591 5591 5591 5591 5592 5592 5592 5593 5593 5594 5594 5595
5559 5560 5561 5562 5562 5562 5563 5564 5565 5565 5564 5564 5564 5565 5565 5566 5568 5569 5570 5570 5571 5572 5573 5574 5575 5575 5576 5577 5576 5576 5577 5579 5580 5580 5582 5583 5583 5584 5584 5585 5585 5585 5585 5586 5586 5587 5587 5587 5587 5588 5588 5588 5588 5588 5588 5589 5589 5589 5589 5589 5588 5588 5588 5587 5587 5587 5587 5587 5587 5587 5587 5587 5587 5587 5588 5588 5588 5589 5589 5589 5590 5590 5590 5591 5591 5592
5552 5554 5555 5556 5556 5555 5556 5557 5559 5559 5558 5558 5558 5559 5560 5561 5562 5563 5564 5565 5566 5567 5568 5569 5570 5570 5571 5572 5571 5571 5572 5574 5575 5576 5577 5579 5579 5580 5580 5580 5580 5581 5581 5582 5582 5583 5583 5583 5584 5584 5584 5584 5585 5585 5585 5585 5585 5585 5585 5585 5585 5585 5585 5585 5584 5584 5584 5584 5584 5584 5584 5584 5585 5585 5585 5585 5585 5586 5586 5586 5587 5587 5588 5588 5589 5589
5545 5547 5548 5550 5550 5549 5550 5551 5552 5552 5551 5552 5553 5553 5554 5555 5556 5557 5558 5559 5560 5561 5562 5564 5565 5565 5566 5567 5567 5567 5568 5569 5570 5571 5573 5574 5575 5575 5576 5576 5576 5577 5577 5578 5578 5579 5579 5580 5580 5580 5580 5581 5581 5581 5582 5582 5582 5582 5582 5582 5582 5582 5582 5581 5581 5581 5581 5581 5581 5581 5581 5581 5582 5582 5582 5582 5583 5583 5584 5584 5585 5585 5585 5586 5586 5587
5538 5540 5541 5542 5542 5543 5544 5544 5545 5545 5545 5546 5547 5547 5548 5550 5550 5551 5552 5554 5555 5556 5557 5559 5560 5561 5561 5562 5562 5562 5563 5564 5565 5566 5568 5569 5570 5571 5572 5572 5572 5572 5573 5574 5574 5575 5575 5576 5576 5577 5577 5577 5578 5578 5579 5579 5579 5579 5579 5579 5579 5579 5579 5579 5579 5579 5578 5578 5578 5578 5579 5579 5579 5580 5580 5580 5580 5581 5581 5582 5582 5582 5583 5584 5584 5585
5531 5532 5534 5535 5535 5536 5537 5537 5538 5538 5539 5540 5541 5541 5542 5543 5544 5545 5546 5548 5549 5550 5552 5553 5555 5555 5556 5557 5558 5558 5558 5559 5560 5562 5563 5564 5565 5566 5567 5568 5568 5568 5569 5570 5570 5571 5571 5572 5573 5573 5574 5574 5574 5575 5575 5575 5576 5576 5576 5576 5576 5576 5576 5576 5576 5576 5575 5575 5575 5576 5576 5576 5576 5577 5577 5578 5578 5579 5579 5579 5580 5580 5581 5581 5582 5582
5523 5525 5526 5527 5528 5529 5530 5530 5531 5532 5533 5534 5535 5535 5536 5537 5538 5539 5540 5542 5543 5545 5546 5548 5549 5550 5551 5553 5553 5554 5553 5555 5556 5557 5558 5559 5560 5562 5563 5563 5564 5564 5565 5565 5566 5567 5567 5568 5569 5570 5570 5570 5571 5571 5572 5572 5573 5573 5573 5573 5573 5573 5573 5573 5573 5573 5573 5573 5573 5573 5573 5574 5574 5574 5575 5575 5576 5576 5577 5577 5577 5578 5578 5579 5580 5580
5515 5517 5518 5520 5521 5522 5523 5524 5524 5525 5526 5527 5529 5530 5530 5531 5532 5533 5535 5536 5538 5540 5541 5542 5543 5544 5546 5547 5548 5549 5549 5550 5551 5552 5553 5555 5555 5557 5558 5559 5560 5560 5560 5561 5562 5563 5564 5564 5565 5566 5566 5567 5568 5568 5569 5569 5570 5570 5570 5570 5570 5570 5570 5570 5570 5570 5570 5570 5570 5570 5570 5571 5571 5572 5572 5573 5573 5574 5574 5575 5575 5575 5576 5576 5577 5578
5507 5509 5510 5512 5513 5515 5516 5516 5517 5518 5520 5521 5522 5523 5524 5525 5526 5528 5529 5530 5533 5534 5535 5535 5537 5539 5541 5542 5543 5543 5544 5545 5546 5547 5549 5550 5551 5552 5553 5555 5555 5556 5556 5557 5558 5559 5560 5560 5561 5562 5563 5563 5564 5565 5565 5566 5566 5567 5567 5567 5567 5567 5567 5567 5567 5567 5567 5567 5567 5568 5568 5568 5569 5569 5570 5570 5571 5571 5572 5572 5573 5573 5574 5574 5575 5575
5499 5500 5502 5504 5505 5507 5508 5509 5510 5511 5513 5514 5515 5516 5517 5519 5520 5521 5522 5525 5527 5528 5529 5530 5531 5534 5535 5536 5537 5538 5540 5540 5541 5542 5544 5545 5546 5547 5549 5550 5551 5552 5552 5553 5554 5555 5555 5556 5557 5558 5559 5560 5561 5561 5562 5563 5563 5563 5564 5564 5564 5564 5564 5564 5564 5564 5564 5564 5565 5565 5565 5565 5566 5566 5567 5568 5568 5569 5569 5570 5570 5571 5571 5572 5572 5573
5490 5492 5494 5495 5497 5498 5500 5501 5503 5504 5505 5507 5508 5509 5510 5512 5514 5515 5516 5519 5521 5522 5522 5524 5526 5528 5530 5531 5532 5533 5534 5535 5536 5537 5539 5541 5542 5542 5545 5546 5546 5547 5548 5549 5550 5550 5552 5553 5554 5555 5555 5556 5557 5558 5559 5559 5560 5560 5560 5560 5561 5561 5561 5561 5561 5561 5561 5561 5562 5562 5562 5563 5563 5564 5564 5565 5565 5566 5567 5567 5568 5568 5569 5569 5570 5570
5481 5483 5485 5486 5488 5490 5491 5493 5495 5496 5498 5499 5501 5502 5503 5505 5507 5509 5510 5513 5515 5516 5517 5518 5520 5522 5524 5525 5527 5528 5529 5530 5531 5532 5534 5536 5536 5538 5540 5541 5542 5542 5544 5545 5545 5546 5547 5549 5550 5551 5551 5552 5553 5554 5555 5556 5556 5557 5557 5557 5558 5558 5558 5558 5558 5558 5559 5559 5559 5559 5560 5560 5560 5561 5562 5562 5563 5563 5564 5565 5565 5565 5566 5566 5567 5568
5471 5473 5475 5477 5479 5481 5483 5485 5486 5488 5490 5492 5493 5495 5496 5498 5500 5502 5504 5506 5508 5510 5511 5513 5515 5516 5518 5520 5521 5523 5524 5525 5526 5527 5529 5530 5531 5533 5535 5536 5537 5537 5539 5540 5541 5542 5543 5545 5546 5547 5548 5549 5550 5550 5551 5552 5553 5553 5554 5554 5554 5555 5555 5555 5555 5555 5555 5556 5556 5556 5557 5557 5558 5558 5559 5560 5560 5561 5561 5562 5562 5563 5563 5564 5565 5565
5461 5464 5466 5468 5470 5472 5474 5476 5478 5480 5482 5484 5485 5487 5489 5491 5493 5495 5497 5499 5501 5503 5505 5507 5508 5510 5512 5514 5516 5517 5519 5520 5521 5522 5523 5525 5526 5528 5530 5532 5532 5533 5535 5536 5537 5538 5540 5541 5542 5544 5545 5545 5546 5547 5548 5549 5549 5550 5550 5551 5551 5551 5552 5552 5552 5552 5553 5553 5553 5554 5554 5555 5555 5555 5556 5557 5557 5558 5559 5559 5560 5560 5561 5562 5562 5563
5452 5454 5456 5459 5461 5463 5465 5467 5469 5471 5473 5475 5477 5480 5481 5484 5486 5488 5490 5492 5495 5497 5499 5500 5502 5504 5506 5508 5510 5512 5514 5515 5515 5516 5518 5520 5521 5523 5525 5527 5528 5529 5530 5532 5534 5535 5536 5537 5538 5540 5541 5542 5543 5544 5545 5545 5546 5547 5547 5548 5548 5549 5549 5549 5550 5550 5550 5550 5550 5551 5551 5552 5552 5553 5554 5554 5555 5555 5556 5556 5557 5558 5558 5559 5560 5561
5443 5445 5447 5450 5452 5454 5456 5458 5460 5463 5465 5467 5469 5471 5474 5476 5479 5481 5483 5485 5488 5490 5492 5494 5496 5498 5500 5502 5504 5506 5508 5509 5510 5511 5513 5515 5516 5518 5520 5522 5523 5525 5526 5528 5529 5531 5532 5533 5535 5536 5537 5538 5539 5540 5541 5542 5543 5544 5544 5545 5545 5545 5546 5546 5547 5547 5547 5547 5548 5548 5548 5549 5550 5550 5551 5551 5552 5552 5553 5554 5555 5555 5556 5557 5558 5559
5434 5436 5438 5440 5443 5445 5448 5450 5452 5454 5456 5459 5461 5463 5466 5468 5471 5473 5476 5478 5480 5483 5485 5487 5489 5491 5493 5495 5498 5500 5502 5503 5504 5506 5508 5510 5511 5513 5515 5517 5519 5520 5522 5523 5525 5526 5528 5530 5531 5532 5533 5534 5535 5537 5538 5539 5540 5540 5541 5542 5542 5542 5543 5543 5544 5544 5544 5545 5545 5545 5545 5546 5547 5547 5548 5548 5549 5550 5550 5551 5552 5553 5554 5555 5556 5556
5424 5426 5429 5431 5434 5437 5439 5441 5444 5446 5448 5450 5453 5455 5458 5460 5463 5465 5468 5470 5473 5476 5478 5480 5482 5484 5487 5489 5492 5494 5495 5497 5499 5500 5502 5504 5506 5508 5510 5512 5514 5516 5518 5519 5520 5522 5524 5525 5527 5528 5529 5530 5532 5533 5535 5535 5536 5537 5538 5538 5539 5540 5540 5540 5541 5541 5541 5542 5542 5542 5543 5543 5544 5544 5545 5546 5546 5547 5548 5549 5550 5550 5551 5552 5553 5554
5414 5416 5419 5422 5425 5428 5431 5433 5435 5438 5440 5442 5445 5447 5449 5452 5455 5457 5460 5463 5466 5468 5471 5473 5475 5477 5480 5483 5485 5488 5490 5491 5493 5495 5497 5499 5501 5504 5506 5507 5509 5512 5513 5515 5516 5518 5520 5521 5523 5524 5525 5527 5528 5530 5531 5532 5533 5534 5535 5535 5536 5536 5537 5537 5538 5538 5539 5539 5539 5540 5540 5540 5541 5541 5542 5543 5544 5545 5545 5546 5547 5548 5549 5550 5551 5552
5404 5406 5410 5413 5417 5420 5422 5425 5427 5430 5432 5434 5436 5439 5441 5444 5446 5449 5452 5455 5458 5461 5463 5466 5468 5471 5474 5476 5479 5481 5484 5485 5487 5489 5491 5494 5496 5499 5501 5503 5505 5507 5509 5510 5512 5514 5516 5517 5519 5520 5522 5523 5525 5526 5528 5529 5530 5531 5531 5532 5533 5533 5534 5535 5535 5535 5535 5536 5536 5537 5537 5538 5538 5539 5540 5540 5541 5542 5542 5543 5544 5545 5546 5547 5548 5549
5394 5397 5400 5404 5408 5411 5414 5417 5419 5421 5424 5426 5428 5430 5432 5435 5438 5441 5444 5447 5450 5453 5456 5459 5462 5465 5467 5470 5473 5475 5477 5480 5481 5484 5486 5489 5491 5494 5496 5498 5500 5502 5504 5506 5508 5510 5511 5513 5515 5517 5518 5520 5521 5523 5525 5526 5527 5528 5529 5530 5530 5531 5531 5532 5532 5532 5533 5533 5533 5534 5534 5535 5535 5536 5537 5537 5538 5539 5540 5541 5542 5543 5544 5545 5546 5547
5385 5388 5391 5395 5399 5402 5406 5409 5410 5413 5415 5417 5419 5421 5424 5427 5430 5434 5437 5440 5443 5446 5449 5452 5455 5458 5461 5464 5466 5469 5471 5474 5476 5479 5481 5484 5486 5489 5491 5493 5495 5498 5500 5502 5504 5505 5507 5509 5511 5513 5515 5516 5518 5520 5521 5522 5524 5525 5526 5527 5527 5528 5528 5529 5529 5529 5530 5530 5530 5531 5531 5532 5533 5533 5534 5535 5535 5536 5537 5538 5539 5540 5541 5542 5543 5544
5376 5379 5383 5386 5390 5394 5397 5400 5402 5404 5406 5409 5411 5414 5417 5420 5424 5427 5430 5433 5436 5439 5442 5446 5449 5452 5455 5457 5460 5463 5466 5468 5471 5474 5476 5479 5481 5484 5486 5489 5491 5493 5495 5497 5499 5501 5504 5505 5508 5510 5511 5513 5515 5516 5517 5519 5520 5522 5523 5523 5524 5525 5525 5525 5526 5526 5527 5527 5528 5528 5529 5529 5530 5530 5531 5532 5533 5534 5535 5535 5536 5538 5539 5540 5541 5542
5367 5370 5374 5378 5381 5385 5388 5391 5393 5395 5398 5401 5404 5407 5410 5413 5417 5420 5423 5426 5429 5432 5436 5439 5443 5446 5449 5451 5454 5457 5460 5463 5466 5468 5471 5474 5476 5479 5481 5484 5486 5488 5491 5493 5495 5497 5500 5502 5504 5506 5508 5510 5512 5513 5514 5516 5517 5519 5520 5520 5521 5522 5522 5522 5523 5523 5524 5524 5525 5525 5526 5526 5527 5528 5528 5529 5530 5531 5532 5533 5534 5535 5536 5537 5538 5539
5359 5362 5365 5370 5373 5376 5379 5382 5385 5388 5391 5394 5398 5400 5403 5407 5410 5413 5416 5419 5423 5426 5429 5433 5436 5440 5442 5445 5448 5451 5455 5458 5460 5464 5466 5469 5471 5474 5477 5479 5481 5484 5486 5489 5491 5493 5496 5498 5501 5503 5505 5507 5509 5510 5511 5512 5514 5515 5516 5517 5518 5519 5519 5520 5520 5520 5520 5521 5521 5522 5523 5523 5524 5525 5525 5526 5527 5529 5530 5531 5532 5533 5534 5535 5536 5537
5351 5354 5358 5361 5365 5369 5372 5375 5378 5380 5384 5387 5390 5394 5397 5400 5403 5406 5410 5413 5416 5420 5424 5427 5430 5434 5436 5440 5443 5446 5450 5453 5456 5459 5461 5464 5467 5470 5472 5475 5477 5480 5482 5485 5487 5489 5492 5495 5497 5499 5501 5504 5505 5506 5508 5509 5510 5512 5513 5514 5515 5515 5515 5516 5517 5517 5517 5518 5519 5519 5520 5520 5521 5522 5523 5524 5525 5526 5527 5528 5529 5530 5531 5532 5533 5534
5344 5347 5350 5353 5357 5361 5365 5368 5370 5374 5377 5380 5383 5387 5390 5393 5397 5400 5403 5407 5410 5414 5418 5421 5425 5428 5431 5434 5437 5441 5445 5448 5451 5454 5457 5459 5462 5465 5468 5470 5473 5475 5478 5480 5483 5485 5488 5491 5493 5495 5498 5500 5502 5503 5504 5505 5507 5508 5509 5510 5511 5512 5512 5513 5513 5514 5515 5515 5516 5516 5517 5518 5519 5520 5520 5521 5523 5524 5525 5526 5527 5528 5529 5530 5531 5532
5337 5340 5342 5346 5349 5353 5356 5360 5363 5367 5370 5373 5376 5380 5383 5387 5390 5394 5397 5401 5405 5408 5412 5415 5419 5422 5425 5429 5433 5437 5440 5443 5446 5450 5452 5455 5458 5460 5463 5466 5469 5471 5474 5476 5479 5482 5485 5487 5490 5492 5495 5497 5499 5500 5501 5502 5503 5504 5505 5507 5508 5508 5509 5510 5510 5511 5511 5512 5513 5514 5514 5515 5516 5517 5518 5519 5520 5521 5522 5523 5524 5525 5526 5527 5528 5529
5330 5333 5335 5339 5342 5345 5348 5352 5356 5360 5363 5366 5369 5373 5377 5381 5385 5388 5392 5395 5399 5403 5407 5410 5414 5417 5420 5424 5428 5432 5435 5438 5441 5445 5448 5451 5453 5456 5459 5462 5465 5467 5470 5473 5475 5478 5481 5484 5486 5489 5491 5493 5495 5496 5498 5499 5500 5501 5502 5503 5504 5505 5505 5506 5507 5508 5508 5509 5510 5511 5511 5512 5514 5515 5516 5517 5518 5519 5520 5521 5522 5523 5524 5525 5526 5527
5324 5327 5329 5332 5335 5339 5341 5345 5349 5353 5356 5360 5363 5367 5371 5375 5379 5383 5386 5390 5394 5398 5402 5405 5409 5412 5416 5420 5424 5427 5430 5434 5437 5440 5444 5447 5449 5452 5455 5458 5460 5464 5466 5469 5472 5475 5477 5480 5482 5485 5487 5490 5491 5493 5494 5495 5497 5498 5499 5500 5501 5501 5502 5503 5504 5505 5505 5506 5507 5508 5509 5510 5511 5512 5514 5515 5516 5517 5518 5519 5520 5520 5522 5523 5524 5525
5319 5321 5324 5327 5330 5332 5335 5339 5342 5346 5350 5353 5357 5361 5365 5369 5373 5377 5381 5385 5389 5393 5397 5400 5404 5408 5412 5415 5419 5423 5426 5430 5433 5436 5439 5442 5445 5448 5451 5454 5457 5460 5463 5466 5469 5471 5474 5477 5479 5481 5484 5486 5488 5490 5491 5492 5493 5495 5495 5496 5497 5498 5499 5500 5501 5501 5502 5503 5504 5505 5506 5507 5508 5510 5511 5512 5513 5514 5515 5516 5517 5518 5519 5520 5521 5522
5314 5316 5319 5322 5324 5327 5330 5333 5337 5340 5344 5347 5351 5355 5360 5364 5368 5372 5376 5380 5384 5388 5392 5396 5400 5404 5407 5411 5415 5419 5422 5425 5429 5432 5435 5438 5441 5445 5448 5451 5454 5457 5460 5463 5466 5469 5471 5474 5476 5478 5480 5483 5485 5486 5488 5489 5490 5491 5492 5493 5494 5495 5496 5497 5498 5499 5500 5500 5501 5502 5504 5505 5506 5507 5509 5510 5511 5512 5513 5514 5515 5516 5517 5518 5519 5520
5309 5311 5314 5317 5319 5322 5325 5328 5332 5335 5339 5342 5346 5350 5355 5359 5363 5367 5371 5376 5380 5384 5388 5392 5396 5400 5403 5407 5411 5415 5418 5421 5425 5428 5431 5435 5438 5441 5444 5447 5450 5454 5456 5460 5463 5465 5468 5470 5473 5475 5477 5479 5481 5483 5484 5485 5486 5488 5489 5490 5491 5492 5493 5494 5495 5496 5497 5498 5499 5500 5501 5502 5503 5505 5506 5508 5509 5510 5510 5512 5513 5514 5515 5515 5516 5518